This demonstration page uses our WeatherBlox Daily Observations layout. Learn more.

Hourly Observations for July 29, 2020

Temp ( °F °C ) Dew Point ( °F °C ) Humidity (%) Winds ( mph kmh ) Pressure ( in mb ) Visibility ( mi km ) Precip ( " mm )
12:15 am 00:15 Clear 71 21.8 69 20.3 91 91 SSE 3 6 29.87 1012 10 16.0934 0 0
12:35 am 00:35 Clear 71 21.7 68 20.2 91 91 Calm 29.87 1012 10 16.0934 0 0
12:55 am 00:55 Partly Cloudy 71 21.6 69 20.3 92 92 Calm 29.87 1012 10 16.0934 0 0
1:15 am 01:15 Partly Cloudy 71 21.7 68 20.2 91 91 Calm 29.86 1011 10 16.0934 0 0
1:35 am 01:35 Clear 71 21.5 68 20.1 92 92 Calm 29.87 1011 10 16.0934 0 0
1:55 am 01:55 Clear 70 20.9 67 19.4 91 91 SE 3 6 29.86 1011 10 16.0934 0 0
2:15 am 02:15 Clear 69 20.7 68 19.8 95 95 SSE 3 6 29.87 1012 10 16.0934 0 0
2:35 am 02:35 Clear 71 21.4 69 20.3 93 93 Calm 29.87 1011 10 16.0934 0 0
2:55 am 02:55 Clear 70 21.1 68 20 93 93 Calm 29.85 1011 10 16.0934 0 0
3:15 am 03:15 Clear 71 21.5 69 20.5 94 94 Calm 29.84 1010 10 16.0934 0 0
3:35 am 03:35 Clear 69 20.7 68 19.9 95 95 Calm 29.84 1011 10 16.0934 0 0
3:55 am 03:55 Clear 69 20.6 67 19.7 95 95 E 3 6 29.82 1010 10 16.0934 0 0
4:15 am 04:15 Clear 69 20.7 68 20 96 96 Calm 29.84 1011 10 16.0934 0 0
4:35 am 04:35 Clear 69 20.7 68 19.9 95 95 Calm 29.84 1011 10 16.0934 0 0
4:55 am 04:55 Clear 70 21.2 69 20.5 96 96 S 3 6 29.85 1011 10 16.0934 0 0
5:15 am 05:15 Mostly Cloudy 70 21.1 69 20.3 95 95 Calm 29.85 1011 10 16.0934 0 0
5:35 am 05:35 Cloudy 71 21.5 69 20.7 95 95 Calm 29.85 1011 10 16.0934 0 0
5:55 am 05:55 Cloudy 71 21.5 69 20.7 95 95 Calm 29.86 1011 10 16.0934 0 0
6:15 am 06:15 Cloudy 71 21.4 69 20.6 95 95 Calm 29.86 1011 10 16.0934 0 0
6:35 am 06:35 Partly Cloudy 71 21.4 69 20.6 95 95 Calm 29.86 1011 10 16.0934 0 0
6:55 am 06:55 Mostly Cloudy 70 21.3 69 20.6 96 96 Calm 29.87 1011 10 16.0934 0 0
7:15 am 07:15 Cloudy 70 21.3 69 20.6 96 96 Calm 29.87 1011 7 11.26538 0 0
7:35 am 07:35 Cloudy with Fog 71 21.5 69 20.8 96 96 Calm 29.87 1011 0.25 0.402335 0 0
7:55 am 07:55 Cloudy with Fog 71 21.5 70 21 97 97 Calm 29.87 1011 0.25 0.402335 0 0
8:15 am 08:15 Cloudy with Fog 71 21.9 71 21.4 97 97 Calm 29.86 1011 0.25 0.402335 0 0
8:35 am 08:35 Cloudy with Nearby Thunderstorms 72 22 71 21.5 97 97 Calm 29.85 1011 0.5 0.80467 0 0
8:55 am 08:55 Cloudy with Mist and Fog 72 22.2 71 21.8 98 98 Calm 29.85 1011 0.75 1.207005 0 0
9:15 am 09:15 Cloudy with Mist and Fog 73 22.5 72 22 97 97 Calm 29.85 1011 5 8.0467 0 0
9:35 am 09:35 Cloudy 73 22.9 72 22.4 97 97 E 3 6 29.83 1010 10 16.0934 0 0
9:55 am 09:55 Mostly Cloudy 76 24.4 73 22.5 89 89 ENE 5 7 29.83 1010 10 16.0934 0 0
10:15 am 10:15 Partly Cloudy 78 25.6 72 22.4 83 83 ENE 6 9 29.82 1010 10 16.0934 0 0
10:35 am 10:35 Mostly Cloudy 79 26 72 22.2 80 80 E 5 7 29.81 1009 10 16.0934 0 0
10:55 am 10:55 Mostly Cloudy 80 26.6 71 21.9 75 75 ENE 6 9 29.8 1009 10 16.0934 0 0
11:15 am 11:15 Mostly Cloudy 82 27.6 71 21.8 71 71 E 6 9 29.81 1009 10 16.0934 0 0
11:35 am 11:35 Mostly Cloudy 82 27.7 70 21.3 68 68 E 7 11 29.8 1009 10 16.0934 0 0
11:55 am 11:55 Mostly Cloudy 82 27.8 69 20.8 66 66 ESE 7 11 29.78 1009 10 16.0934 0 0
12:15 pm 12:15 Cloudy 84 28.8 71 21.8 66 66 E 9 15 29.78 1008 10 16.0934 0 0
12:35 pm 12:35 Mostly Cloudy 84 28.7 69 20.8 62 62 ESE 7 11 29.78 1008 10 16.0934 0 0
12:55 pm 12:55 Mostly Cloudy 84 29 69 20.8 61 61 ENE 3 6 29.77 1008 10 16.0934 0 0
1:15 pm 13:15 Mostly Cloudy 83 28.6 69 20.5 62 62 NE 3 6 29.78 1008 10 16.0934 0 0
1:35 pm 13:35 Partly Cloudy 84 29.1 68 19.9 58 58 ENE 8 13 29.76 1008 10 16.0934 0 0
1:55 pm 13:55 Sunny 85 29.4 66 18.8 53 53 E 3 6 29.76 1008 10 16.0934 0 0
2:15 pm 14:15 Sunny 85 29.7 65 18.6 51 51 E 3 6 29.74 1007 10 16.0934 0 0
2:35 pm 14:35 Partly Cloudy 84 29 68 20.2 59 59 E 8 13 29.76 1008 10 16.0934 0 0
2:55 pm 14:55 Mostly Cloudy 86 29.9 67 19.7 54 54 SE 5 7 29.74 1007 10 16.0934 0 0
3:15 pm 15:15 Mostly Cloudy 84 28.7 67 19.6 58 58 E 7 11 29.74 1007 10 16.0934 0 0
3:35 pm 15:35 Partly Cloudy 86 30 67 19.7 54 54 E 7 11 29.73 1007 10 16.0934 0 0
3:55 pm 15:55 Sunny 85 29.6 66 19.1 53 53 E 7 11 29.73 1007 10 16.0934 0 0
4:15 pm 16:15 Sunny 84 29 66 18.8 54 54 ENE 3 6 29.73 1007 10 16.0934 0 0
4:35 pm 16:35 Sunny 86 30 66 19.1 52 52 ENE 6 9 29.72 1006 10 16.0934 0 0
4:55 pm 16:55 Sunny 86 29.8 66 19.1 53 53 E 7 11 29.7 1006 10 16.0934 0 0
5:15 pm 17:15 Partly Cloudy 86 29.9 67 19.4 53 53 ESE 9 15 29.69 1005 10 16.0934 0 0
5:35 pm 17:35 Partly Cloudy 85 29.6 66 18.7 52 52 ESE 8 13 29.7 1006 10 16.0934 0 0
5:55 pm 17:55 Sunny 84 28.7 67 19.6 58 58 E 8 13 29.7 1006 10 16.0934 0 0
6:15 pm 18:15 Sunny 83 28.3 69 20.6 63 63 ESE 7 11 29.71 1006 10 16.0934 0 0
6:35 pm 18:35 Sunny 84 28.7 70 20.9 63 63 ESE 9 15 29.72 1006 10 16.0934 0 0
6:55 pm 18:55 Sunny 83 28.1 69 20.6 64 64 E 10 17 29.71 1006 10 16.0934 0 0
7:15 pm 19:15 Sunny 81 27.3 69 20.8 68 68 E 10 17 29.73 1007 10 16.0934 0 0
7:35 pm 19:35 Sunny 79 26.2 71 21.5 75 75 ESE 9 15 29.74 1007 10 16.0934 0 0
7:55 pm 19:55 Sunny 78 25.5 71 21.5 79 79 E 8 13 29.74 1007 10 16.0934 0 0
8:15 pm 20:15 Partly Cloudy 77 25.2 70 21.1 78 78 E 9 15 29.76 1008 10 16.0934 0 0
8:35 pm 20:35 Mostly Cloudy 77 25 71 21.5 81 81 ENE 10 17 29.76 1008 10 16.0934 0 0
8:55 pm 20:55 Mostly Cloudy 74 23.2 68 19.8 81 81 NNE 16 26 29.8 1009 7 11.26538 0.04 1.016
9:15 pm 21:15 Mostly Cloudy with Light Rain 69 20.6 66 19.1 91 91 NNE 14 22 29.81 1010 10 16.0934 0.09 2.286
9:35 pm 21:35 Partly Cloudy 68 20.2 65 18.5 90 90 ENE 9 15 29.83 1010 10 16.0934 0.09 2.286
9:55 pm 21:55 Partly Cloudy with Light Rain 69 20.5 66 19 91 91 E 13 20 29.82 1010 10 16.0934 0.09 2.286
10:15 pm 22:15 Partly Cloudy 69 20.5 66 19.1 92 92 E 9 15 29.81 1010 10 16.0934 0.01 0.254
10:35 pm 22:35 Partly Cloudy 69 20.5 67 19.2 92 92 E 7 11 29.82 1010 10 16.0934 0.01 0.254
10:55 pm 22:55 Partly Cloudy 69 20.5 67 19.2 92 92 ESE 3 6 29.82 1010 10 16.0934 0.01 0.254
11:15 pm 23:15 Partly Cloudy 68 20 66 19 94 94 NW 8 13 29.85 1011 10 16.0934 0 0
11:35 pm 23:35 Mostly Cloudy 68 20 66 18.9 93 93 NNW 15 24 29.89 1012 10 16.0934 0 0
11:55 pm 23:55 Cloudy with Rain 68 20 66 18.8 93 93 NNW 16 26 29.91 1013 5 8.0467 0.05 1.27

Powered by AerisWeather